BHUTAN-1 (43591 NORAD) Tracking and Keplerian Element Data

This shows tracking and keplerian element data for the satellite.

Feedback or suggestion? Click here.




ElementValue
Catalog43591
NameBHUTAN-1
Epoch Orbit4471
Epoch Day144.31464909
Epoch Year2019
RAAN110.5736
Inclination51.6373
Eccentricity0.0006901
Argument of Perigee60.2827
Mean Anonmoly299.8852
Mean Motion15.61246706
Decay Rate9.324E-05
L11 43591U 98067PF 19144.31464909 .00009324 00000-0 11372-3 0 9992
L22 43591 51.6373 110.5736 0006901 60.2827 299.8852 15.61246706 44710

Live tracking and technical data element details for BHUTAN-1 (NORAD 43591). BHUTAN-1 can be tracked NOW for your location showing map with azimuth and elevation plus other details from your city location.

Track the satellite on the map from your city or location and see movement details for azimuth, elevation, latitude, longitude, range, height, and movement on the map or in text.







IsCatalogInMostPopularTable: catalog: 43591, numindb: 133
Update: records affected: 1



GetName: 43591 BHUTAN-1

Hit Count: updated at: Fri, 24 May 2019 20:55:40 GMT